Weather History for YBHM - November, 2012

Change the Weather History Date:

Monday, November 5, 2012

  Actual Average Record
Temperature  
Mean Temperature 76 °F -  
Max Temperature 80 °F - - ()
Min Temperature 73 °F - - ()
Cooling Degree Days 12    
Growing Degree Days 26 (Base 50)    
Moisture  
Dew Point 64 °F    
Average Humidity 65    
Maximum Humidity 78    
Minimum Humidity 53    
Precipitation  
Precipitation 0.00 in - - ()
Sea Level Pressure  
Sea Level Pressure 30.00 in    
Wind  
Wind Speed 21 mph ()    
Max Wind Speed 28 mph    
Max Gust Speed -    
T = Trace of Precipitation, MM = Missing Value Source: Averaged Metar Reports

Daily Weather History Graph

Daily Weather History Graph

Search for Another Location

Airport or City:

Trip Planner

Search our weather history database for the weather conditions in past years. The results will help you decide how hot, cold, wet, or windy it might be!

Date:

Astronomy

Nov. 05, 2012 Rise Set
Actual Time 5:20 AM AEST 6:15 PM AEST
Civil Twilight 4:56 AM AEST 6:38 PM AEST
Nautical Twilight 4:29 AM AEST 7:06 PM AEST
Astronomical Twilight 4:01 AM AEST 7:34 PM AEST
Moon 11:20 PM AEST (11/5) 10:01 AM AEST (11/5)
Length of Visible Light 13h 41m
Length of Day
12h 55m
Waning Gibbous, 69% of the Moon is Illuminated
Nov 5
Waning Gibbous
Nov 7
Last Quarter
Nov 14
New
Nov 21
First Quarter
Nov 29
Full

Hourly Weather History & Observations

Time (AEST) Temp. Heat Index Dew Point Humidity Pressure Visibility Wind Dir Wind Speed Gust Speed Precip Events Conditions
12:00 AM 75 °F - 67 °F 68% 30.01 in - ESE 24.2 mph - -  
12:00 AM 75.2 °F - 66.2 °F 73% 30.01 in - ESE 24.2 mph - N/A   Unknown
12:30 AM 75.2 °F - 66.2 °F 73% 30.01 in - SE 20.7 mph - N/A   Unknown
1:00 AM 75.2 °F - 66.2 °F 73% 29.98 in - ESE 20.7 mph - N/A   Unknown
1:30 AM 75.2 °F - 66.2 °F 73% 29.98 in - ESE 20.7 mph - N/A   Unknown
2:00 AM 75.2 °F - 68.0 °F 78% 29.98 in - ESE 25.3 mph - N/A   Unknown
2:30 AM 75.2 °F - 66.2 °F 73% 29.98 in - ESE 26.5 mph - N/A   Unknown
3:00 AM 75 °F - 65 °F 63% 29.97 in - ESE 26.5 mph - -  
3:00 AM 75.2 °F - 64.4 °F 69% 29.98 in - ESE 26.5 mph - N/A   Unknown
3:30 AM 75.2 °F - 64.4 °F 69% 29.98 in - ESE 25.3 mph - N/A   Unknown
4:00 AM 75.2 °F - 64.4 °F 69% 29.98 in - East 25.3 mph - N/A   Unknown
4:30 AM 75.2 °F - 64.4 °F 69% 29.98 in - ESE 24.2 mph - N/A   Unknown
5:00 AM 75.2 °F - 64.4 °F 69% 29.98 in - East 24.2 mph - N/A   Unknown
5:30 AM 75.2 °F - 64.4 °F 69% 30.01 in - East 23.0 mph - N/A   Unknown
6:00 AM 75 °F - 64 °F 62% 30.01 in - ESE 20.7 mph - -  
6:00 AM 75.2 °F - 64.4 °F 69% 30.01 in - ESE 20.7 mph - N/A   Unknown
6:30 AM 75.2 °F - 64.4 °F 69% 30.01 in - ESE 21.9 mph - N/A   Unknown
7:00 AM 75.2 °F - 64.4 °F 69% 30.04 in - East 23.0 mph - N/A   Unknown
7:30 AM 77.0 °F - 64.4 °F 65% 30.04 in - East 23.0 mph - N/A   Unknown
8:00 AM 77.0 °F - 62.6 °F 61% 30.04 in - East 23.0 mph - N/A   Unknown
8:30 AM 77.0 °F - 62.6 °F 61% 30.04 in - East 21.9 mph - N/A   Unknown
9:00 AM 78 °F - 64 °F 53% 30.05 in - East 19.6 mph - -  
9:00 AM 78.8 °F - 64.4 °F 61% 30.04 in - East 19.6 mph - N/A   Unknown
9:30 AM 78.8 °F - 64.4 °F 61% 30.04 in - ESE 19.6 mph - N/A   Unknown
10:00 AM 78.8 °F - 62.6 °F 57% 30.04 in - ESE 19.6 mph - N/A   Unknown
10:30 AM 78.8 °F - 64.4 °F 61% 30.04 in - ESE 19.6 mph - N/A   Unknown
11:00 AM 80.6 °F 81.8 °F 62.6 °F 54% 30.04 in - ESE 17.3 mph - N/A   Unknown
11:30 AM 80.6 °F 82.3 °F 64.4 °F 58% 30.01 in - ESE 17.3 mph - N/A   Unknown
12:00 PM 78 °F - 64 °F 53% 30.01 in - East 18.4 mph - -  
12:00 PM 77.0 °F - 64.4 °F 65% 30.01 in - East 18.4 mph - N/A   Unknown
12:30 PM 78.8 °F - 64.4 °F 61% 30.01 in - East 19.6 mph - N/A   Unknown
1:00 PM 78.8 °F - 64.4 °F 61% 29.98 in - East 19.6 mph - N/A   Unknown
1:30 PM 80.6 °F 82.3 °F 64.4 °F 58% 29.98 in - East 20.7 mph - N/A   Unknown
2:00 PM 78.8 °F - 64.4 °F 61% 29.98 in - East 18.4 mph - N/A   Unknown
2:30 PM 78.8 °F - 64.4 °F 61% 29.95 in - East 20.7 mph - N/A   Unknown
3:00 PM 77 °F - 65 °F 58% 29.96 in - East 20.7 mph - -  
3:00 PM 77.0 °F - 64.4 °F 65% 29.95 in - East 20.7 mph - N/A   Unknown
3:30 PM 77.0 °F - 66.2 °F 69% 29.95 in - ESE 20.7 mph - N/A   Unknown
4:00 PM 77.0 °F - 64.4 °F 65% 29.95 in - ESE 25.3 mph - N/A   Unknown
4:30 PM 77.0 °F - 64.4 °F 65% 29.95 in - ESE 21.9 mph - N/A   Unknown
5:00 PM 75.2 °F - 64.4 °F 69% 29.95 in - ESE 23.0 mph - N/A   Unknown
5:30 PM 75.2 °F - 62.6 °F 65% 29.98 in - ESE 23.0 mph - N/A   Unknown
6:00 PM 75 °F - 64 °F 61% 29.98 in - ESE 23.0 mph - -  
6:00 PM 75.2 °F - 64.4 °F 69% 29.98 in - ESE 23.0 mph - N/A   Unknown
6:30 PM 75.2 °F - 62.6 °F 65% 29.98 in - ESE 25.3 mph - N/A   Unknown
7:00 PM 75.2 °F - 62.6 °F 65% 29.98 in - ESE 24.2 mph - N/A   Unknown
7:30 PM 75.2 °F - 64.4 °F 69% 30.01 in - ESE 24.2 mph - N/A   Unknown
8:00 PM 75.2 °F - 62.6 °F 65% 30.01 in - ESE 27.6 mph - N/A   Unknown
8:30 PM 75.2 °F - 62.6 °F 65% 30.01 in - ESE 25.3 mph - N/A   Unknown
9:00 PM 75 °F - 63 °F 58% 30.03 in - ESE 20.7 mph - -  
9:00 PM 75.2 °F - 62.6 °F 65% 30.04 in - ESE 20.7 mph - N/A   Unknown
9:30 PM 75.2 °F - 62.6 °F 65% 30.04 in - ESE 23.0 mph - N/A   Unknown
10:00 PM 75.2 °F - 60.8 °F 61% 30.04 in - ESE 23.0 mph - N/A   Unknown
10:30 PM 73.4 °F - 60.8 °F 65% 30.04 in - ESE 23.0 mph - N/A   Unknown
11:00 PM 73.4 °F - 60.8 °F 65% 30.04 in - ESE 20.7 mph - N/A   Unknown
11:30 PM 75.2 °F - 62.6 °F 65% 30.01 in - ESE 21.9 mph - N/A   Unknown